User: anonymous   Login
Location: Unspecified
(0.0000°N, 0.0000°E)
Time: 05:57:13
(UTC+00:00)
Language:

TATIANA - Orbit

View from above orbital plane
View from above orbital plane
View from above satellite
View from above satellite

Ground track
Ground track

The orbit data is extracted from the following two-line orbital elements,

1 28523U 05002C   19082.93232286 +.00000034 +00000-0 +16017-4 0  9998
2 28523 082.9477 243.2880 0036984 311.5103 048.2888 13.87478645717499
Epoch (UTC): 23 March 2019 22:22:32
Eccentricity: 0.0036984
inclination: 82.9477°
perigee height: 910 km
apogee height: 964 km
right ascension of ascending node: 243.2880°
argument of perigee: 311.5103°
revolutions per day: 13.87478645
mean anomaly at epoch: 48.2888°
orbit number at epoch: 71749

The dashed part of the orbit path shows where the satellite is in the earth's shadow,  

DLR